[[{"header":{"parameterUnit":"m.s-1","parameterCategory":1,"la1":30.2991,"la2":30.254,"lo1":-89.0895,"lo2":-89.0444,"dy":0.0017,"dx":0.0017,"nx":28,"ny":28,"refTime":"2025-04-27T09:00:00:Z","depth":0,"parameterNumber":2,"parameterNumberName":"U-component_of_WINDS"},"data":[0,0,0,0,0,0,0,0,0,0,0,0,0,0,0,0,0,0,0,0,0,0,0,0,0,0,0,0,0,0,0,0,0,0,0,0,0,0,0,0,0,0,0,0,0,0,0,0,0,0,0,0,0,0,0,0,0,0,-1.2345,-1.2344,0,-1.2292,-1.2292,-1.2291,-1.2236,-1.2235,-1.2234,-1.2233,-1.218,-1.2179,-1.2178,0,0,0,0,0,0,0,0,0,0,0,0,0,-1.2398,-1.2398,-1.2345,-1.2344,-1.2344,-1.2293,-1.2292,-1.2291,-1.2236,-1.2235,-1.2234,-1.2233,-1.218,-1.2179,-1.2178,0,0,0,0,0,0,0,0,0,0,0,0,0,-1.2364,-1.2398,-1.2345,-1.231,-1.2306,-1.2293,-1.2292,-1.2291,-1.2236,-1.2235,-1.2234,-1.2233,-1.218,-1.2179,-1.2178,-1.2195,0,0,-1.2175,-1.2174,0,0,0,0,0,0,0,0,-1.2366,-1.2362,-1.2316,-1.2312,-1.2308,-1.2269,-1.2291,-1.2259,-1.2236,-1.2263,-1.2233,-1.2232,-1.221,-1.2207,-1.2199,-1.2192,-1.219,-1.2175,-1.2174,-1.2174,-1.2173,0,0,0,0,0,0,0,-1.2368,-1.2364,-1.2324,-1.2315,-1.2311,-1.2297,-1.2291,-1.2285,-1.2244,-1.226,-1.2256,-1.2251,-1.2208,-1.2201,-1.2198,-1.2189,-1.2175,-1.2174,-1.2173,-1.2173,-1.2195,-1.2196,0,0,0,0,0,0,-1.2376,-1.2366,-1.2326,-1.2323,-1.2335,-1.2297,-1.229,-1.2283,-1.2244,-1.2237,-1.2252,-1.2248,-1.2203,-1.2199,-1.2196,-1.2213,-1.2174,-1.2173,-1.2172,-1.2193,-1.2195,-1.2196,0,0,0,0,0,0,-1.2377,-1.2373,-1.2328,-1.2343,-1.2336,-1.2297,-1.229,-1.2283,-1.2275,-1.2237,-1.223,-1.2252,-1.2202,-1.2197,-1.2196,-1.2211,-1.2172,-1.2171,-1.2192,-1.2194,-1.2196,-1.2249,0,0,0,0,0,0,-1.2379,-1.2374,-1.2379,-1.2344,-1.2336,-1.2329,-1.2291,-1.2282,-1.2273,-1.2268,-1.2235,-1.2228,-1.2201,-1.2198,-1.2195,-1.2208,-1.217,-1.219,-1.2193,-1.2195,-1.2245,-1.2252,-1.2258,0,0,0,0,0,-1.2381,-1.2396,-1.238,-1.2375,-1.2342,-1.233,-1.2325,-1.2293,-1.2275,-1.228,-1.2256,-1.2229,-1.221,-1.2198,-1.2194,-1.2208,-1.2189,-1.2192,-1.2195,-1.2243,-1.2251,-1.2258,0,0,0,0,0,0,-1.2434,-1.2391,-1.2372,-1.2376,-1.2357,-1.232,-1.2326,-1.2303,-1.2288,-1.2284,-1.2245,-1.2238,-1.2241,-1.2224,-1.2212,-1.2223,-1.2196,-1.2198,-1.2233,-1.2241,-1.2247,-1.2251,-1.2169,0,0,0,0,0,-1.2446,-1.2439,-1.2402,-1.2409,-1.24,-1.2365,-1.2359,-1.2336,-1.2314,-1.2306,-1.2282,-1.2262,-1.2252,-1.2245,-1.2234,-1.2243,-1.2235,-1.2251,-1.2257,-1.2262,-1.2265,-1.2269,-1.2276,-1.2205,-1.2205,-1.2205,0,0,-1.2471,-1.2446,-1.2444,-1.2419,-1.2402,-1.2396,-1.2359,-1.2354,-1.235,-1.2305,-1.2302,-1.2284,-1.226,-1.2265,-1.2265,-1.2251,-1.2283,-1.2266,-1.227,-1.2269,-1.2273,-1.2279,-1.2285,-1.2207,-1.2207,-1.2206,0,0,-1.2513,-1.2494,-1.2498,-1.2482,-1.2456,-1.2433,-1.2434,-1.2401,-1.2387,-1.2384,-1.2351,-1.2346,-1.2328,-1.2312,-1.2302,-1.2341,-1.2316,-1.2338,-1.237,-1.2375,-1.2381,-1.2386,-1.24,-1.2405,-1.2341,-1.2341,-1.2341,0,-1.2547,-1.2537,-1.2503,-1.2501,-1.2491,-1.2451,-1.2455,-1.2441,-1.2413,-1.2407,-1.2392,-1.237,-1.2351,-1.2351,-1.2361,-1.2354,-1.2355,-1.2341,-1.2383,-1.2387,-1.2391,-1.2404,-1.241,-1.2344,-1.2343,-1.2343,-1.2343,0,-1.258,-1.2574,-1.258,-1.2555,-1.2546,-1.2547,-1.2514,-1.2509,-1.2487,-1.2466,-1.2464,-1.244,-1.2423,-1.2422,-1.24,-1.242,-1.2412,-1.239,-1.2362,-1.2401,-1.2413,-1.2418,-1.2348,-1.2347,-1.2346,-1.2345,0,0,-1.2653,-1.2609,-1.2612,-1.2601,-1.257,-1.2565,-1.2565,-1.2549,-1.2545,-1.2528,-1.2527,-1.2514,-1.2495,-1.2483,-1.246,-1.2465,-1.2498,-1.2442,-1.2441,-1.2454,-1.2518,-1.2534,-1.2541,-1.2481,-1.2482,-1.2483,-1.252,0,-1.269,-1.2686,-1.2657,-1.2662,-1.2656,-1.262,-1.262,-1.2601,-1.2582,-1.2575,-1.2553,-1.2545,-1.252,-1.2513,-1.2516,-1.2493,-1.251,-1.249,-1.248,-1.248,-1.2487,-1.2546,-1.2563,-1.26,-1.2524,-1.2525,-1.2526,0,-1.2732,-1.2717,-1.2722,-1.2693,-1.2689,-1.269,-1.2673,-1.2667,-1.2646,-1.2631,-1.262,-1.2594,-1.2593,-1.2567,-1.2565,-1.2552,-1.2547,-1.2535,-1.2536,-1.2533,-1.2505,-1.2545,-1.261,-1.2616,-1.2532,-1.2532,-1.2531,0,-1.2784,-1.2766,-1.2767,-1.2758,-1.2724,-1.2725,-1.2711,-1.2689,-1.2682,-1.2667,-1.2662,-1.2648,-1.2641,-1.2631,-1.2602,-1.2586,-1.2604,-1.2575,-1.2592,-1.2593,-1.2596,-1.2596,-1.2661,-1.2594,-1.2594,-1.2594,-1.2594,0,-1.2828,-1.2833,-1.279,-1.2791,-1.2795,-1.2762,-1.2767,-1.275,-1.2731,-1.2728,-1.2695,-1.2693,-1.2656,-1.265,-1.2628,-1.263,-1.2627,-1.2615,-1.2609,-1.2618,-1.2619,-1.2613,-1.261,-1.2595,-1.2595,-1.2595,-1.2594,0,-1.2887,-1.2859,-1.2858,-1.2826,-1.2818,-1.2823,-1.2795,-1.2795,-1.2774,-1.2771,-1.2768,-1.2736,-1.2727,-1.2698,-1.2682,-1.2668,-1.2677,-1.2665,-1.2684,-1.268,-1.2698,-1.2697,-1.2761,-1.2768,-1.2696,-1.2697,-1.2698,0,-1.2917,-1.292,-1.2888,-1.2884,-1.2871,-1.2865,-1.2857,-1.2825,-1.2819,-1.2796,-1.2799,-1.2788,-1.2777,-1.2765,-1.274,-1.2729,-1.2716,-1.274,-1.2714,-1.2723,-1.2717,-1.2717,-1.2717,-1.2745,-1.2746,-1.2747,-1.2748,0,-1.2973,-1.2959,-1.2949,-1.2935,-1.2927,-1.2915,-1.29,-1.2899,-1.2863,-1.2857,-1.2848,-1.284,-1.2825,-1.2814,-1.2799,-1.2784,-1.276,-1.2756,-1.2759,-1.2768,-1.2778,-1.2773,-1.2698,-1.2754,-1.2754,-1.2753,-1.2753,-1.2753,-1.3018,-1.3019,-1.2998,-1.2988,-1.2974,-1.2962,-1.296,-1.2939,-1.2931,-1.2916,-1.2898,-1.2891,-1.2871,-1.2848,-1.2836,-1.2831,-1.2818,-1.2822,-1.2823,-1.2825,-1.2829,-1.278,-1.2828,-1.2828,-1.2827,-1.2827,-1.2827,0,-1.3072,-1.3057,-1.3049,-1.303,-1.3023,-1.3001,-1.2984,-1.298,-1.2974,-1.2958,-1.2949,-1.2939,-1.2929,-1.2905,-1.2893,-1.2893,-1.2882,-1.2891,-1.2891,-1.2888,-1.2842,-1.284,-1.2901,-1.2901,-1.2901,-1.2901,-1.2901,-1.2901,-1.31,-1.3101,-1.3085,-1.3079,-1.3063,-1.3056,-1.3049,-1.3037,-1.3024,-1.3015,-1.3007,-1.2991,-1.2971,-1.2958,-1.2949,-1.2942,-1.2939,-1.2952,-1.2941,-1.2898,-1.2891,-1.2884,-1.2883,-1.2951,-1.2951,-1.2988,-1.2988,-1.2989]},{"header":{"parameterUnit":"m.s-1","parameterCategory":1,"la1":30.2991,"la2":30.254,"lo1":-89.0895,"lo2":-89.0444,"dy":0.0017,"dx":0.0017,"nx":28,"ny":28,"refTime":"2025-04-27T09:00:00:Z","depth":0,"parameterNumber":3,"parameterNumberName":"V-component_of_WINDS"},"data":[0,0,0,0,0,0,0,0,0,0,0,0,0,0,0,0,0,0,0,0,0,0,0,0,0,0,0,0,0,0,0,0,0,0,0,0,0,0,0,0,0,0,0,0,0,0,0,0,0,0,0,0,0,0,0,0,0,0,2.5213,2.5213,0,2.5199,2.5199,2.5198,2.5194,2.5194,2.5194,2.5194,2.5177,2.5176,2.5175,0,0,0,0,0,0,0,0,0,0,0,0,0,2.5235,2.5235,2.5213,2.5213,2.5213,2.5199,2.5199,2.5198,2.5194,2.5194,2.5194,2.5195,2.5177,2.5176,2.5175,0,0,0,0,0,0,0,0,0,0,0,0,0,2.5224,2.5235,2.5214,2.5209,2.5209,2.5199,2.5199,2.5198,2.5194,2.5194,2.5194,2.5195,2.5177,2.5176,2.5175,2.5168,0,0,2.5173,2.5172,0,0,0,0,0,0,0,0,2.5224,2.5223,2.521,2.521,2.5209,2.5199,2.52,2.5188,2.5194,2.52,2.5194,2.5195,2.5184,2.5182,2.5179,2.5167,2.5166,2.5173,2.5172,2.5172,2.5172,0,0,0,0,0,0,0,2.5225,2.5224,2.5208,2.521,2.5209,2.5207,2.5206,2.5198,2.5191,2.5199,2.5199,2.5197,2.5183,2.518,2.5179,2.5166,2.5173,2.5172,2.5171,2.5171,2.5146,2.5146,0,0,0,0,0,0,2.5227,2.5224,2.5208,2.5207,2.5217,2.5207,2.5205,2.5202,2.5191,2.519,2.5197,2.5197,2.5181,2.518,2.5178,2.5168,2.5172,2.5171,2.5171,2.5147,2.5146,2.5146,0,0,0,0,0,0,2.5228,2.5226,2.5209,2.5216,2.5213,2.5206,2.5202,2.5201,2.5198,2.519,2.5188,2.5195,2.5181,2.5179,2.517,2.5168,2.5171,2.517,2.5147,2.5146,2.5146,2.5149,0,0,0,0,0,0,2.5228,2.5226,2.5223,2.5216,2.5213,2.5202,2.5202,2.5201,2.5197,2.5197,2.5187,2.5186,2.5181,2.5172,2.517,2.5167,2.5169,2.5147,2.5147,2.5146,2.5149,2.5149,2.5149,0,0,0,0,0,2.5229,2.5224,2.5223,2.5221,2.521,2.5202,2.52,2.5196,2.5197,2.5194,2.5189,2.5186,2.5168,2.5171,2.5168,2.5165,2.5147,2.5147,2.5146,2.5149,2.5149,2.5149,0,0,0,0,0,0,2.5231,2.5223,2.5222,2.5215,2.5209,2.5201,2.5198,2.5196,2.5189,2.5189,2.5183,2.5181,2.5173,2.5168,2.5171,2.5157,2.5158,2.5157,2.5161,2.516,2.516,2.5161,2.5169,0,0,0,0,0,2.5231,2.5226,2.5219,2.5213,2.521,2.5204,2.5201,2.5198,2.5192,2.5189,2.5183,2.5176,2.5169,2.5164,2.5157,2.5149,2.5146,2.5145,2.5145,2.5145,2.5144,2.5139,2.5138,2.5145,2.5145,2.5145,0,0,2.5229,2.5225,2.5222,2.5213,2.5208,2.5203,2.5202,2.5196,2.5192,2.5188,2.5179,2.5175,2.5167,2.5158,2.5154,2.5154,2.5142,2.5144,2.5144,2.5143,2.5138,2.5138,2.5137,2.5145,2.5145,2.5145,0,0,2.5225,2.5221,2.5216,2.5211,2.5205,2.5201,2.52,2.5192,2.5189,2.5181,2.5178,2.5172,2.516,2.5155,2.515,2.5144,2.5141,2.5142,2.514,2.5136,2.5135,2.5135,2.5132,2.5131,2.5141,2.5141,2.5141,0,2.5224,2.5216,2.5213,2.5207,2.5203,2.52,2.5195,2.519,2.5181,2.5178,2.5179,2.5164,2.5158,2.5148,2.5147,2.5143,2.5141,2.5143,2.5136,2.5135,2.5134,2.5132,2.5131,2.5141,2.5141,2.5141,2.5141,0,2.5216,2.521,2.5207,2.5199,2.5195,2.5189,2.5184,2.518,2.5178,2.5174,2.5166,2.5159,2.5151,2.5148,2.5145,2.5138,2.5138,2.5137,2.5137,2.5134,2.5132,2.5131,2.5141,2.5141,2.5141,2.5141,0,0,2.5211,2.5203,2.5201,2.5198,2.5191,2.5186,2.518,2.5173,2.517,2.5164,2.5158,2.5148,2.5148,2.5143,2.5139,2.5135,2.513,2.5134,2.5134,2.5134,2.5122,2.5122,2.5121,2.5129,2.5129,2.5129,2.5122,0,2.5206,2.5196,2.5193,2.5184,2.5179,2.5176,2.5171,2.5166,2.5162,2.5156,2.5152,2.5145,2.5145,2.5142,2.5137,2.5132,2.5128,2.5132,2.5123,2.5123,2.5125,2.512,2.5121,2.5115,2.5121,2.5121,2.5121,0,2.5198,2.5193,2.5184,2.5178,2.5175,2.5171,2.5164,2.5159,2.5153,2.515,2.5145,2.5142,2.5135,2.5136,2.5126,2.5129,2.5125,2.5122,2.5122,2.512,2.5122,2.5119,2.5113,2.5112,2.512,2.512,2.512,0,2.5195,2.5186,2.518,2.5177,2.517,2.5167,2.5163,2.5157,2.5153,2.5147,2.5144,2.5137,2.5133,2.5127,2.5122,2.5123,2.5112,2.5113,2.511,2.511,2.5107,2.5107,2.5101,2.5105,2.5105,2.5105,2.5105,0,2.5189,2.5184,2.5179,2.5175,2.5169,2.5165,2.5159,2.5155,2.515,2.5145,2.5142,2.5137,2.5131,2.5125,2.512,2.5113,2.5111,2.5108,2.5107,2.5108,2.5109,2.5105,2.5106,2.5105,2.5105,2.5105,2.5105,0,2.5186,2.5182,2.5175,2.5169,2.5167,2.5163,2.5157,2.5153,2.515,2.5143,2.5141,2.5135,2.5128,2.5122,2.5113,2.511,2.5102,2.5101,2.5104,2.5104,2.5101,2.5101,2.5092,2.509,2.5095,2.5095,2.5095,0,2.5182,2.5178,2.5172,2.5169,2.5166,2.516,2.5157,2.5153,2.5149,2.5141,2.5138,2.5131,2.5125,2.5114,2.5108,2.51,2.5099,2.5096,2.5098,2.5099,2.5099,2.5099,2.5098,2.5096,2.5096,2.5096,2.5096,0,2.5176,2.5175,2.517,2.5165,2.516,2.5156,2.5151,2.5148,2.5143,2.5139,2.5132,2.5128,2.5118,2.5111,2.5103,2.5099,2.5096,2.5095,2.5094,2.5096,2.5098,2.5097,2.5104,2.5096,2.5096,2.5096,2.5096,2.5096,2.5172,2.5169,2.5164,2.5159,2.5155,2.5151,2.5147,2.5143,2.5137,2.513,2.5128,2.5121,2.5114,2.5104,2.5099,2.5093,2.5093,2.5091,2.5091,2.5091,2.5091,2.5099,2.5092,2.5092,2.5092,2.5092,2.5092,0,2.5166,2.5163,2.5158,2.5152,2.5148,2.5147,2.5142,2.5138,2.5132,2.5127,2.5122,2.5114,2.5107,2.5101,2.5093,2.509,2.5088,2.5088,2.5088,2.5087,2.5091,2.5093,2.5089,2.5089,2.5089,2.5089,2.5089,2.5089,2.5163,2.5157,2.5155,2.5147,2.5143,2.5137,2.5134,2.513,2.5126,2.5118,2.5113,2.5109,2.5103,2.5096,2.5089,2.5087,2.5085,2.5084,2.5082,2.5086,2.5087,2.5087,2.5089,2.5084,2.5084,2.5079,2.5079,2.5079]}]]